When you browse on this site, cookies collect data to enhance your experience and personalize the content and advertising you see.
Visit our Privacy Policy to learn more. By continuing to use the site, you agree to this use of cookies and data.
  • în România
  • Lista ţărilor
  • Pe 7 zile
  • Temperatura apei
  • Hartă satelitară
  • Meteo pe hartă
  • Widget-uri
  • user-avatar
    Intrare

    Meteo pe oră la Galevka

    Astăzi, 19 Februarie, Marţi

    Timp Temperatura Precipitaţii Vânt Presiune Umiditate
    00:00 -13°C° 0 mm 3 m/s 749 mmHg 90%
    01:00 -13°C° 0 mm 3 m/s 749 mmHg 91%
    02:00 -14°C° 0 mm 3 m/s 750 mmHg 91%
    03:00 -14°C° 0 mm 2 m/s 750 mmHg 92%
    04:00 -14°C° 0 mm 2 m/s 750 mmHg 92%
    05:00 -14°C° 0 mm 2 m/s 750 mmHg 91%
    06:00 -15°C° 0 mm 2 m/s 750 mmHg 91%
    07:00 -14°C° 0 mm 2 m/s 750 mmHg 90%
    08:00 -14°C° 0 mm 2 m/s 750 mmHg 90%
    09:00 -15°C° 0 mm 3 m/s 750 mmHg 90%
    10:00 -13°C° 0 mm 3 m/s 750 mmHg 89%
    11:00 -11°C° 0 mm 4 m/s 750 mmHg 88%
    12:00 -11°C° 0 mm 5 m/s 749 mmHg 88%
    13:00 -10°C° 0 mm 5 m/s 749 mmHg 86%
    14:00 -8°C° 0 mm 5 m/s 748 mmHg 85%
    15:00 -8°C° 0 mm 6 m/s 748 mmHg 84%
    16:00 -8°C° 0 mm 6 m/s 747 mmHg 85%
    17:00 -8°C° 0 mm 6 m/s 747 mmHg 85%
    18:00 -9°C° 0 mm 6 m/s 747 mmHg 86%
    19:00 -9°C° 0 mm 6 m/s 746 mmHg 86%
    20:00 -9°C° 0 mm 6 m/s 746 mmHg 87%
    21:00 -9°C° 0 mm 6 m/s 746 mmHg 87%
    22:00 -9°C° 0 mm 6 m/s 745 mmHg 86%
    23:00 -9°C° 0 mm 6 m/s 745 mmHg 85%

    Mâine, 20 Februarie, Miercuri

    Timp Temperatura Precipitaţii Vânt Presiune Umiditate
    00:00 -10°C° 0 mm 6 m/s 744 mmHg 84%
    01:00 -10°C° 0 mm 6 m/s 744 mmHg 84%
    02:00 -10°C° 0 mm 6 m/s 743 mmHg 85%
    03:00 -10°C° 0 mm 6 m/s 743 mmHg 85%
    04:00 -11°C° 0 mm 7 m/s 742 mmHg 86%
    05:00 -9°C° 0 mm 7 m/s 741 mmHg 87%
    06:00 -9°C° 0 mm 7 m/s 741 mmHg 88%
    07:00 -8°C° 0 mm 7 m/s 740 mmHg 89%
    08:00 -8°C° 0 mm 7 m/s 740 mmHg 89%
    09:00 -7°C° 0 mm 7 m/s 740 mmHg 90%
    10:00 -6°C° 0 mm 7 m/s 739 mmHg 90%
    11:00 -4°C° 0 mm 7 m/s 739 mmHg 90%
    12:00 -4°C° 0 mm 7 m/s 739 mmHg 90%
    13:00 -3°C° 0 mm 7 m/s 738 mmHg 90%
    14:00 -3°C° 0 mm 6 m/s 738 mmHg 90%
    15:00 -3°C° 0 mm 6 m/s 738 mmHg 90%
    16:00 -3°C° 0.3 mm 6 m/s 738 mmHg 91%
    17:00 -3°C° 0.3 mm 6 m/s 737 mmHg 91%
    18:00 -3°C° 0.3 mm 6 m/s 737 mmHg 92%
    19:00 -1°C° 0 mm 5 m/s 737 mmHg 92%
    20:00 -1°C° 0 mm 5 m/s 737 mmHg 92%
    21:00 -1°C° 0 mm 5 m/s 737 mmHg 93%
    22:00 -1°C° 0 mm 5 m/s 736 mmHg 93%
    23:00 -1°C° 0 mm 5 m/s 736 mmHg 92%

    Poimâine, 21 Februarie, Joi

    Timp Temperatura Precipitaţii Vânt Presiune Umiditate
    00:00 -2°C° 0 mm 4 m/s 735 mmHg 92%
    01:00 -2°C° 0 mm 5 m/s 735 mmHg 92%
    02:00 -2°C° 0 mm 5 m/s 735 mmHg 92%
    03:00 -2°C° 0 mm 5 m/s 734 mmHg 92%
    04:00 -2°C° 0.2 mm 5 m/s 734 mmHg 92%
    05:00 -2°C° 0.2 mm 6 m/s 734 mmHg 92%
    06:00 -2°C° 0.2 mm 6 m/s 733 mmHg 91%
    07:00 -3°C° 0.2 mm 6 m/s 733 mmHg 91%
    08:00 -4°C° 0.2 mm 6 m/s 733 mmHg 90%
    09:00 -4°C° 0.2 mm 6 m/s 733 mmHg 90%
    10:00 -5°C° 0 mm 5 m/s 733 mmHg 90%
    11:00 -6°C° 0 mm 5 m/s 733 mmHg 89%
    12:00 -6°C° 0 mm 5 m/s 733 mmHg 89%
    13:00 -5°C° 0 mm 4 m/s 733 mmHg 88%
    14:00 -4°C° 0 mm 4 m/s 733 mmHg 87%
    15:00 -3°C° 0 mm 4 m/s 734 mmHg 86%
    16:00 -4°C° 0.2 mm 5 m/s 734 mmHg 87%
    17:00 -4°C° 0.2 mm 6 m/s 734 mmHg 89%
    18:00 -4°C° 0.2 mm 6 m/s 734 mmHg 90%
    19:00 -5°C° 0.1 mm 6 m/s 734 mmHg 90%
    20:00 -6°C° 0.1 mm 6 m/s 735 mmHg 89%
    21:00 -8°C° 0.1 mm 6 m/s 735 mmHg 89%
    22:00 -8°C° 0.1 mm 6 m/s 735 mmHg 89%
    23:00 -7°C° 0.1 mm 7 m/s 736 mmHg 89%

    22 Februarie, Vineri

    Timp Temperatura Precipitaţii Vânt Presiune Umiditate
    00:00 -7°C° 0.1 mm 7 m/s 736 mmHg 89%
    01:00 -8°C° 0.1 mm 7 m/s 737 mmHg 89%
    02:00 -9°C° 0.1 mm 7 m/s 737 mmHg 88%
    03:00 -12°C° 0.1 mm 8 m/s 738 mmHg 87%
    04:00 -12°C° 0.1 mm 8 m/s 738 mmHg 87%
    05:00 -13°C° 0.1 mm 8 m/s 739 mmHg 87%
    06:00 -13°C° 0.1 mm 8 m/s 740 mmHg 87%
    07:00 -15°C° 0.1 mm 8 m/s 741 mmHg 85%
    08:00 -16°C° 0.1 mm 8 m/s 741 mmHg 84%
    09:00 -17°C° 0.1 mm 8 m/s 742 mmHg 83%
    10:00 -17°C° 0 mm 8 m/s 743 mmHg 82%
    11:00 -17°C° 0 mm 8 m/s 743 mmHg 82%
    12:00 -17°C° 0 mm 8 m/s 744 mmHg 81%
    13:00 -17°C° 0 mm 8 m/s 744 mmHg 81%
    14:00 -16°C° 0 mm 8 m/s 744 mmHg 80%
    15:00 -16°C° 0 mm 8 m/s 745 mmHg 80%
    16:00 -15°C° 0 mm 7 m/s 745 mmHg 81%
    17:00 -15°C° 0 mm 7 m/s 746 mmHg 83%
    18:00 -15°C° 0 mm 6 m/s 746 mmHg 84%
    19:00 -15°C° 0.1 mm 6 m/s 746 mmHg 85%
    20:00 -16°C° 0.1 mm 6 m/s 747 mmHg 86%
    21:00 -16°C° 0.1 mm 6 m/s 747 mmHg 87%
    22:00 -16°C° 0 mm 6 m/s 748 mmHg 88%
    23:00 -17°C° 0 mm 5 m/s 748 mmHg 89%

    23 Februarie, Sâmbătă

    Timp Temperatura Precipitaţii Vânt Presiune Umiditate
    00:00 -17°C° 0 mm 5 m/s 748 mmHg 90%
    01:00 -17°C° 0.1 mm 5 m/s 749 mmHg 90%
    02:00 -17°C° 0.1 mm 5 m/s 749 mmHg 90%
    03:00 -16°C° 0.1 mm 4 m/s 750 mmHg 90%
    04:00 -18°C° 0 mm 5 m/s 750 mmHg 90%
    05:00 -18°C° 0 mm 5 m/s 750 mmHg 90%
    06:00 -18°C° 0 mm 5 m/s 751 mmHg 90%
    07:00 -18°C° 0 mm 5 m/s 751 mmHg 90%
    08:00 -18°C° 0 mm 5 m/s 751 mmHg 91%
    09:00 -18°C° 0 mm 4 m/s 752 mmHg 91%
    10:00 -17°C° 0 mm 4 m/s 752 mmHg 90%
    11:00 -17°C° 0 mm 5 m/s 752 mmHg 88%
    12:00 -17°C° 0 mm 5 m/s 753 mmHg 86%
    13:00 -15°C° 0 mm 5 m/s 753 mmHg 86%
    14:00 -15°C° 0 mm 5 m/s 753 mmHg 86%
    15:00 -14°C° 0 mm 5 m/s 753 mmHg 86%
    16:00 -15°C° 0 mm 4 m/s 753 mmHg 88%
    17:00 -15°C° 0 mm 4 m/s 753 mmHg 90%
    18:00 -15°C° 0 mm 3 m/s 753 mmHg 91%
    19:00 -14°C° 0 mm 3 m/s 754 mmHg 92%
    20:00 -14°C° 0 mm 3 m/s 754 mmHg 93%
    21:00 -14°C° 0 mm 3 m/s 755 mmHg 93%
    22:00 -15°C° 0 mm 3 m/s 755 mmHg 94%
    23:00 -16°C° 0 mm 3 m/s 755 mmHg 94%

    24 Februarie, Duminică

    Timp Temperatura Precipitaţii Vânt Presiune Umiditate
    00:00 -16°C° 0 mm 3 m/s 756 mmHg 95%
    01:00 -16°C° 0 mm 3 m/s 756 mmHg 95%
    02:00 -16°C° 0 mm 3 m/s 756 mmHg 95%
    03:00 -16°C° 0 mm 3 m/s 757 mmHg 95%
    04:00 -17°C° 0 mm 3 m/s 757 mmHg 95%
    05:00 -18°C° 0 mm 3 m/s 757 mmHg 96%
    06:00 -19°C° 0 mm 3 m/s 757 mmHg 96%
    07:00 -19°C° 0 mm 3 m/s 758 mmHg 96%
    08:00 -19°C° 0 mm 3 m/s 758 mmHg 96%
    09:00 -19°C° 0 mm 3 m/s 759 mmHg 95%
    10:00 -18°C° 0 mm 3 m/s 759 mmHg 95%
    11:00 -17°C° 0 mm 3 m/s 759 mmHg 94%
    12:00 -16°C° 0 mm 3 m/s 759 mmHg 93%
    13:00 -16°C° 0 mm 3 m/s 759 mmHg 92%
    14:00 -15°C° 0 mm 3 m/s 759 mmHg 91%
    15:00 -15°C° 0 mm 3 m/s 758 mmHg 90%
    16:00 -15°C° 0 mm 2 m/s 758 mmHg 91%
    17:00 -16°C° 0 mm 2 m/s 758 mmHg 92%
    18:00 -15°C° 0 mm 1 m/s 758 mmHg 93%
    19:00 -16°C° 0 mm 1 m/s 758 mmHg 93%
    20:00 -17°C° 0 mm 1 m/s 757 mmHg 93%
    21:00 -17°C° 0 mm 0 m/s 757 mmHg 93%
    22:00 -17°C° 0 mm 1 m/s 757 mmHg 93%
    23:00 -17°C° 0 mm 1 m/s 756 mmHg 93%
    Arată mai mult